Regional Weather Roundup
Issued by NWS Cleveland, OH

Home | Current Version | Previous Version | Graphics & Text | Print | Product List | Glossary On
Versions: 1 2 3 4 5 6 7 8 9 10 11 12 13 14 15 16 17 18 19 20 21 22 23 24 25 26 27 28 29 30 31 32 33 34 35 36 37 38 39 40 41 42 43 44 45 46 47 48 49 50
000
ASUS41 KCLE 221610
RWRCLE
OHIO REGIONAL WEATHER ROUNDUP
NATIONAL WEATHER SERVICE CLEVELAND, OH
1100 AM EST WED FEB 22 2017

NOTE: "FAIR" INDICATES FEW OR NO CLOUDS BELOW 12,000 FEET WITH NO
SIGNIFICANT WEATHER AND/OR OBSTRUCTIONS TO VISIBILITY.

OHZ001>008-015>018-024>027-034-035-043-044-221700-
   NORTHWEST OHIO

CITY           SKY/WX    TMP DP  RH WIND       PRES   REMARKS
DEFIANCE       CLOUDY    57  53  86 SW9       29.85F FOG
FINDLAY        CLOUDY    60  53  77 S12       29.87S
TOLEDO EXPRESS CLOUDY    60  55  83 SW10      29.84F
TOLEDO EXEC    CLOUDY    61  56  83 SW13      29.86F HAZE
LIMA           CLOUDY    58  56  93 S9        29.88F
$$

OHZ009>014-019>023-028>033-038-089-221700-
   NORTHEAST OHIO

CITY           SKY/WX    TMP DP  RH WIND       PRES   REMARKS
CLE-HOPKINS    PTSUNNY   60  53  77 SW10      29.91F
CLE-LAKEFRONT  CLOUDY    61  54  77 S9        29.88S
CUY CO. ARPT   PTSUNNY   59  55  88 SW12      29.90S
LORAIN-ELYRIA  CLOUDY    59  52  77 SW14      29.88F
ASHTABULA      CLOUDY    55  53  93 S10       29.90F
AKRON-CANTON   LGT RAIN  55  52  89 SW8       29.92F VSB 3/4
WOOSTER        CLOUDY    54  53  97 SW9       29.91F FOG
MANSFIELD      CLOUDY    55  55 100 S12       29.90F FOG
YOUNGSTOWN     LGT RAIN  55  53  93 SW8       29.92F FOG
$$

OHZ042-051>053-060>062-070>072-077>081-221700-
  SOUTHWEST OHIO

CITY           SKY/WX    TMP DP  RH WIND       PRES   REMARKS
CINC-COVINGTON CLOUDY    58  57  97 S9        29.91F FOG
CINC-LUNKEN    CLOUDY    59  58  96 S7        29.92F FOG
HAMILTON       CLOUDY    59  57  93 S6        29.91F FOG
DAYTON         FOG       56  55  97 S12       29.91F VSB 1/2
WRIGHT-PAT AFB CLOUDY    57  57 100 S9        29.90F
DAYTON GENERAL CLOUDY    56  55  97 S9        29.90F FOG
WILMINGTON     CLOUDY    55  55 100 S9        29.92F FOG
$$

OHZ036-037-039>041-045>050-054>059-063>069-073>076-082>088-221700-
  CENTRAL AND SOUTHEAST OHIO

CITY           SKY/WX    TMP DP  RH WIND       PRES   REMARKS
COLUMBUS       CLOUDY    58  56  93 S8        29.92F FOG
OSU AIRPORT    CLOUDY    55  55 100 S8        29.91F FOG
BOLTON FIELD   CLOUDY    55  55 100 S9        29.93F FOG
RICKENBACK AFB CLOUDY    56  56 100 S10       29.93S
NEWARK         CLOUDY    56  54  93 S6        29.92F
MARION         CLOUDY    57  53  86 SW14G22   29.90F
LANCASTER      CLOUDY    59  55  87 S7        29.93F
ZANESVILLE     CLOUDY    55  53  93 S7        29.94F FOG
NEW PHILLY     NOT AVBL
$$




USA.gov is the U.S. government's official web portal to all federal, state and local government web resources and services.